[[{"header":{"parameterUnit":"m.s-1","parameterCategory":1,"la1":30.2991,"la2":30.254,"lo1":-89.0895,"lo2":-89.0444,"dy":0.0017,"dx":0.0017,"nx":28,"ny":28,"refTime":"2023-03-17T21:00:00:Z","depth":0,"parameterNumber":2,"parameterNumberName":"U-component_of_WINDS"},"data":[0,0,0,0,0,0,0,0,0,0,0,0,0,0,0,0,0,0,0,0,0,0,0,0,0,0,0,0,0,0,0,0,0,0,0,0,0,0,0,0,0,0,0,0,0,0,0,0,0,0,0,0,0,0,0,0,0,0,-2.3993,-2.3995,0,-2.4158,-2.416,-2.4162,-2.4122,-2.4119,-2.4116,-2.4113,-2.4284,-2.4291,-2.4299,0,0,0,0,0,0,0,0,0,0,0,0,0,-2.3644,-2.3651,-2.3993,-2.3995,-2.3997,-2.4158,-2.416,-2.4162,-2.4123,-2.4119,-2.4115,-2.4112,-2.4281,-2.429,-2.4299,0,0,0,0,0,0,0,0,0,0,0,0,0,-2.3801,-2.3653,-2.3993,-2.3997,-2.3999,-2.4157,-2.416,-2.4163,-2.4124,-2.4119,-2.4114,-2.411,-2.4278,-2.4289,-2.4301,-2.4466,0,0,-2.4335,-2.434,0,0,0,0,0,0,0,0,-2.3792,-2.3814,-2.3994,-2.3997,-2.3999,-2.4115,-2.41,-2.4265,-2.4125,-2.4077,-2.4113,-2.4108,-2.4232,-2.4246,-2.4288,-2.4474,-2.4481,-2.4336,-2.4343,-2.4348,-2.4351,0,0,0,0,0,0,0,-2.3781,-2.3807,-2.4058,-2.3997,-2.4,-2.3991,-2.4008,-2.4131,-2.4179,-2.408,-2.4078,-2.4098,-2.4232,-2.4277,-2.4292,-2.4483,-2.4336,-2.4346,-2.4353,-2.4357,-2.4811,-2.4816,0,0,0,0,0,0,-2.3768,-2.3798,-2.4053,-2.4063,-2.3882,-2.4001,-2.402,-2.4083,-2.4177,-2.4187,-2.4102,-2.4095,-2.426,-2.4279,-2.4297,-2.4497,-2.4348,-2.4358,-2.4365,-2.4806,-2.4812,-2.4818,0,0,0,0,0,0,-2.3761,-2.3791,-2.4047,-2.393,-2.3962,-2.4012,-2.4083,-2.4088,-2.4133,-2.4194,-2.4202,-2.4139,-2.4257,-2.4282,-2.4424,-2.4502,-2.4363,-2.4373,-2.4799,-2.4808,-2.4815,-2.4896,0,0,0,0,0,0,-2.3751,-2.3789,-2.3853,-2.3932,-2.3968,-2.4171,-2.4088,-2.4095,-2.4153,-2.4146,-2.4231,-2.424,-2.4255,-2.4407,-2.4435,-2.4515,-2.4382,-2.4793,-2.4803,-2.4813,-2.4887,-2.4906,-2.4923,0,0,0,0,0,-2.3739,-2.387,-2.3856,-2.3887,-2.4049,-2.4175,-2.4196,-2.421,-2.4159,-2.4224,-2.4261,-2.4238,-2.4488,-2.4422,-2.4453,-2.4538,-2.4788,-2.48,-2.4812,-2.4879,-2.4902,-2.4922,0,0,0,0,0,0,-2.38,-2.388,-2.3866,-2.4026,-2.4094,-2.4168,-2.425,-2.4235,-2.4319,-2.4309,-2.4323,-2.4343,-2.4488,-2.4526,-2.4451,-2.4701,-2.4631,-2.4649,-2.4671,-2.4694,-2.4711,-2.47,-2.4392,0,0,0,0,0,-2.3832,-2.3927,-2.3992,-2.4128,-2.4162,-2.42,-2.4256,-2.4261,-2.4332,-2.436,-2.4409,-2.4479,-2.4573,-2.4635,-2.4726,-2.4891,-2.4909,-2.4965,-2.4982,-2.4997,-2.5013,-2.5103,-2.5128,-2.4857,-2.4857,-2.4857,0,0,-2.3899,-2.3955,-2.4015,-2.4141,-2.4194,-2.4293,-2.4225,-2.4333,-2.4406,-2.4377,-2.4514,-2.4552,-2.463,-2.4785,-2.4855,-2.4822,-2.5092,-2.5012,-2.5023,-2.5032,-2.5118,-2.5143,-2.5166,-2.4865,-2.4864,-2.4862,0,0,-2.4073,-2.4125,-2.4243,-2.4296,-2.4377,-2.4401,-2.4429,-2.4505,-2.4529,-2.4666,-2.4645,-2.4732,-2.4895,-2.4952,-2.5002,-2.5194,-2.5175,-2.5222,-2.5317,-2.5404,-2.5425,-2.5444,-2.5513,-2.5537,-2.5238,-2.5239,-2.5239,0,-2.4147,-2.4295,-2.4305,-2.4415,-2.4471,-2.4447,-2.4566,-2.4618,-2.4724,-2.4763,-2.4724,-2.4926,-2.4977,-2.5144,-2.519,-2.5232,-2.5264,-2.5214,-2.5421,-2.544,-2.5458,-2.5524,-2.5549,-2.5244,-2.5243,-2.5243,-2.5242,0,-2.4382,-2.4485,-2.4571,-2.4673,-2.4738,-2.4852,-2.4879,-2.4944,-2.4942,-2.4969,-2.5109,-2.5169,-2.527,-2.531,-2.531,-2.5476,-2.5453,-2.5417,-2.5347,-2.5489,-2.5551,-2.5576,-2.5252,-2.525,-2.5248,-2.5247,0,0,-2.4603,-2.4706,-2.4738,-2.4783,-2.4869,-2.4949,-2.506,-2.5158,-2.5214,-2.5286,-2.5381,-2.5517,-2.5484,-2.5541,-2.5546,-2.5622,-2.577,-2.5577,-2.5579,-2.5611,-2.5957,-2.5985,-2.6014,-2.5756,-2.5761,-2.5765,-2.5951,0,-2.4785,-2.4983,-2.4993,-2.5173,-2.5267,-2.5244,-2.5341,-2.5404,-2.5432,-2.5516,-2.5547,-2.5643,-2.5592,-2.5626,-2.57,-2.5736,-2.584,-2.5723,-2.5845,-2.5849,-2.5828,-2.6046,-2.6076,-2.6249,-2.5975,-2.5979,-2.5982,0,-2.5025,-2.5104,-2.5293,-2.5363,-2.5403,-2.549,-2.558,-2.5661,-2.573,-2.5745,-2.5807,-2.5801,-2.5915,-2.5838,-2.5996,-2.5916,-2.5966,-2.5991,-2.5998,-2.6011,-2.5926,-2.6067,-2.6304,-2.6331,-2.602,-2.6017,-2.6014,0,-2.5168,-2.5321,-2.5453,-2.5493,-2.5578,-2.564,-2.5678,-2.5743,-2.5801,-2.5879,-2.5916,-2.6007,-2.6057,-2.6126,-2.6144,-2.6087,-2.6301,-2.6226,-2.6317,-2.6317,-2.6366,-2.6363,-2.6616,-2.6395,-2.6395,-2.6394,-2.6394,0,-2.5372,-2.5488,-2.5519,-2.56,-2.5729,-2.574,-2.5867,-2.5901,-2.5958,-2.6046,-2.603,-2.6113,-2.6131,-2.6216,-2.6231,-2.6359,-2.6381,-2.6396,-2.6399,-2.6399,-2.6397,-2.6434,-2.6423,-2.6401,-2.64,-2.6398,-2.6397,0,-2.5555,-2.558,-2.5722,-2.579,-2.5809,-2.5902,-2.596,-2.6038,-2.6062,-2.6173,-2.6199,-2.6238,-2.6338,-2.6362,-2.6481,-2.649,-2.6642,-2.6632,-2.6618,-2.6618,-2.6708,-2.67,-2.6995,-2.7034,-2.6786,-2.6789,-2.6791,0,-2.5684,-2.5773,-2.5849,-2.5906,-2.5947,-2.6039,-2.6097,-2.611,-2.6171,-2.6255,-2.6323,-2.642,-2.65,-2.666,-2.6699,-2.6789,-2.6783,-2.6879,-2.6796,-2.6793,-2.6785,-2.678,-2.6789,-2.6896,-2.6899,-2.6901,-2.6903,0,-2.5911,-2.5918,-2.6002,-2.6091,-2.616,-2.6231,-2.6298,-2.6345,-2.6366,-2.6436,-2.6537,-2.6598,-2.6718,-2.6815,-2.6906,-2.6944,-2.6928,-2.6928,-2.6954,-2.6956,-2.6944,-2.6952,-2.6663,-2.6922,-2.692,-2.6919,-2.6918,-2.6917,-2.6072,-2.6149,-2.6215,-2.6309,-2.636,-2.6422,-2.6498,-2.6531,-2.6616,-2.6714,-2.6716,-2.6826,-2.6891,-2.7011,-2.7054,-2.714,-2.7111,-2.7148,-2.7158,-2.7168,-2.7176,-2.6929,-2.7157,-2.7156,-2.7156,-2.7155,-2.7155,0,-2.6299,-2.6339,-2.6425,-2.6519,-2.6592,-2.6567,-2.664,-2.6703,-2.68,-2.6862,-2.6939,-2.7054,-2.7147,-2.7192,-2.7284,-2.7344,-2.7339,-2.7368,-2.7365,-2.7374,-2.7197,-2.7166,-2.7371,-2.7371,-2.7371,-2.7371,-2.7371,-2.7371,-2.6426,-2.6556,-2.657,-2.6724,-2.6763,-2.6871,-2.6914,-2.6971,-2.702,-2.7149,-2.7226,-2.7254,-2.7309,-2.7404,-2.7488,-2.7499,-2.7534,-2.7568,-2.7575,-2.7409,-2.7387,-2.7366,-2.7337,-2.7575,-2.7575,-2.7745,-2.7746,-2.7747]},{"header":{"parameterUnit":"m.s-1","parameterCategory":1,"la1":30.2991,"la2":30.254,"lo1":-89.0895,"lo2":-89.0444,"dy":0.0017,"dx":0.0017,"nx":28,"ny":28,"refTime":"2023-03-17T21:00:00:Z","depth":0,"parameterNumber":3,"parameterNumberName":"V-component_of_WINDS"},"data":[0,0,0,0,0,0,0,0,0,0,0,0,0,0,0,0,0,0,0,0,0,0,0,0,0,0,0,0,0,0,0,0,0,0,0,0,0,0,0,0,0,0,0,0,0,0,0,0,0,0,0,0,0,0,0,0,0,0,-5.202,-5.2021,0,-5.2118,-5.2119,-5.212,-5.2042,-5.2038,-5.2035,-5.2032,-5.2131,-5.2136,-5.2142,0,0,0,0,0,0,0,0,0,0,0,0,0,-5.1763,-5.1768,-5.202,-5.2021,-5.2023,-5.2118,-5.2119,-5.2121,-5.2042,-5.2038,-5.2034,-5.203,-5.2129,-5.2135,-5.2142,0,0,0,0,0,0,0,0,0,0,0,0,0,-5.1869,-5.177,-5.202,-5.1995,-5.1994,-5.2118,-5.2119,-5.2121,-5.2043,-5.2038,-5.2033,-5.2029,-5.2126,-5.2135,-5.2143,-5.2296,0,0,-5.217,-5.2173,0,0,0,0,0,0,0,0,-5.1864,-5.1879,-5.1997,-5.1997,-5.1996,-5.2063,-5.2065,-5.218,-5.2044,-5.2024,-5.2032,-5.2026,-5.2112,-5.2121,-5.2151,-5.2301,-5.2305,-5.217,-5.2175,-5.2179,-5.2182,0,0,0,0,0,0,0,-5.1856,-5.1874,-5.2059,-5.1999,-5.1998,-5.1978,-5.1988,-5.2086,-5.2095,-5.2026,-5.202,-5.2033,-5.211,-5.2143,-5.2152,-5.2307,-5.217,-5.2178,-5.2183,-5.2186,-5.2588,-5.2593,0,0,0,0,0,0,-5.1852,-5.1869,-5.2056,-5.2062,-5.1916,-5.1987,-5.1998,-5.2046,-5.2094,-5.2096,-5.2037,-5.2029,-5.213,-5.2142,-5.2156,-5.2339,-5.2179,-5.2187,-5.2192,-5.2582,-5.2589,-5.2595,0,0,0,0,0,0,-5.1846,-5.1869,-5.2052,-5.1964,-5.1986,-5.1997,-5.2052,-5.2051,-5.2083,-5.2102,-5.2103,-5.2069,-5.2127,-5.2143,-5.2262,-5.2341,-5.2191,-5.2199,-5.2576,-5.2584,-5.2592,-5.2706,0,0,0,0,0,0,-5.1839,-5.1868,-5.1926,-5.1966,-5.1991,-5.2158,-5.2057,-5.2056,-5.2098,-5.2088,-5.2132,-5.2134,-5.2124,-5.225,-5.2271,-5.235,-5.2206,-5.2569,-5.258,-5.2589,-5.2695,-5.2717,-5.2736,0,0,0,0,0,-5.1831,-5.1954,-5.193,-5.1953,-5.2064,-5.2162,-5.2176,-5.2163,-5.2105,-5.2164,-5.2176,-5.2133,-5.2329,-5.2263,-5.2285,-5.2369,-5.2564,-5.2577,-5.2589,-5.2686,-5.2713,-5.2735,0,0,0,0,0,0,-5.1923,-5.1959,-5.1932,-5.2072,-5.2115,-5.2149,-5.2223,-5.2191,-5.2251,-5.2239,-5.2219,-5.2229,-5.2354,-5.2373,-5.2299,-5.2519,-5.2437,-5.2455,-5.2503,-5.2529,-5.2548,-5.2542,-5.2213,0,0,0,0,0,-5.1959,-5.2037,-5.2063,-5.2184,-5.2207,-5.2212,-5.2254,-5.2239,-5.2283,-5.23,-5.2321,-5.2364,-5.2435,-5.2483,-5.2549,-5.2697,-5.2706,-5.2765,-5.2786,-5.2802,-5.2818,-5.2898,-5.2926,-5.2636,-5.2636,-5.2635,0,0,-5.2036,-5.2065,-5.2115,-5.2203,-5.2235,-5.2315,-5.2227,-5.2315,-5.2375,-5.2313,-5.2427,-5.2444,-5.2491,-5.2625,-5.2685,-5.2645,-5.29,-5.2818,-5.2831,-5.2838,-5.2914,-5.2941,-5.2966,-5.2644,-5.2643,-5.2641,0,0,-5.2216,-5.2246,-5.235,-5.2384,-5.2433,-5.2435,-5.246,-5.2499,-5.2509,-5.2623,-5.2579,-5.2648,-5.2771,-5.2807,-5.2841,-5.3035,-5.2998,-5.3057,-5.3164,-5.3242,-5.3265,-5.3285,-5.3356,-5.3381,-5.3073,-5.3073,-5.3073,0,-5.2305,-5.2425,-5.2408,-5.25,-5.254,-5.2489,-5.2595,-5.2627,-5.2696,-5.2725,-5.2678,-5.2832,-5.2859,-5.3002,-5.3049,-5.3078,-5.3107,-5.3053,-5.3263,-5.3283,-5.3302,-5.3369,-5.3395,-5.308,-5.3079,-5.3078,-5.3078,0,-5.2532,-5.2615,-5.2693,-5.2762,-5.2811,-5.2909,-5.2907,-5.2958,-5.294,-5.2947,-5.3064,-5.3096,-5.3168,-5.32,-5.3183,-5.3341,-5.3314,-5.3266,-5.3183,-5.3337,-5.34,-5.3425,-5.309,-5.3087,-5.3085,-5.3084,0,0,-5.2773,-5.2831,-5.2861,-5.2891,-5.2942,-5.3006,-5.3102,-5.3173,-5.3218,-5.3267,-5.3347,-5.3453,-5.3409,-5.3447,-5.3433,-5.3502,-5.3656,-5.3445,-5.3446,-5.3484,-5.3833,-5.387,-5.39,-5.3631,-5.3636,-5.364,-5.383,0,-5.2957,-5.3125,-5.3113,-5.3271,-5.3348,-5.3301,-5.3384,-5.3424,-5.3434,-5.35,-5.3509,-5.3585,-5.3521,-5.3544,-5.361,-5.3623,-5.3726,-5.3609,-5.3706,-5.371,-5.3697,-5.3933,-5.3972,-5.415,-5.3854,-5.3858,-5.3861,0,-5.3194,-5.3252,-5.3419,-5.3458,-5.349,-5.3566,-5.3631,-5.3695,-5.3739,-5.3741,-5.3785,-5.3759,-5.3856,-5.377,-5.3903,-5.3824,-5.3863,-5.3875,-5.3882,-5.3892,-5.3796,-5.395,-5.4206,-5.4234,-5.3899,-5.3896,-5.3893,0,-5.3355,-5.3475,-5.359,-5.3617,-5.3666,-5.3721,-5.3743,-5.3783,-5.3827,-5.3883,-5.3912,-5.3979,-5.4016,-5.4068,-5.4061,-5.3999,-5.4197,-5.411,-5.4202,-5.4203,-5.4247,-5.4245,-5.4515,-5.427,-5.427,-5.4269,-5.4269,0,-5.3562,-5.3666,-5.3663,-5.3734,-5.385,-5.3834,-5.3948,-5.3965,-5.4,-5.4074,-5.4036,-5.4105,-5.4091,-5.4161,-5.4156,-5.4268,-5.4284,-5.4289,-5.4287,-5.4293,-5.4293,-5.4319,-5.4307,-5.4276,-5.4275,-5.4273,-5.4272,0,-5.3762,-5.3764,-5.3887,-5.3923,-5.3935,-5.4019,-5.4049,-5.4117,-5.4122,-5.4216,-5.4237,-5.4246,-5.4326,-5.4324,-5.4415,-5.4411,-5.455,-5.4532,-5.4535,-5.4532,-5.4625,-5.4617,-5.4922,-5.4962,-5.469,-5.4693,-5.4695,0,-5.3895,-5.3974,-5.4019,-5.4066,-5.4093,-5.4168,-5.4214,-5.4201,-5.425,-5.4307,-5.4367,-5.4444,-5.4504,-5.4634,-5.4649,-5.4718,-5.4703,-5.4805,-5.4713,-5.4718,-5.4706,-5.4703,-5.4711,-5.4824,-5.4827,-5.4829,-5.4831,0,-5.4131,-5.4128,-5.4195,-5.4263,-5.4318,-5.4371,-5.4419,-5.4459,-5.4452,-5.4509,-5.459,-5.4638,-5.473,-5.4807,-5.4874,-5.4897,-5.4864,-5.486,-5.4885,-5.4894,-5.4893,-5.4896,-5.4586,-5.4853,-5.4851,-5.485,-5.4848,-5.4848,-5.4302,-5.4371,-5.4414,-5.449,-5.4525,-5.4571,-5.4637,-5.4651,-5.4719,-5.4795,-5.4783,-5.4874,-5.4917,-5.5003,-5.5032,-5.5104,-5.5068,-5.5104,-5.5113,-5.5123,-5.5134,-5.488,-5.5115,-5.5115,-5.5114,-5.5114,-5.5113,0,-5.4537,-5.4563,-5.4633,-5.4702,-5.4762,-5.4726,-5.4778,-5.483,-5.4912,-5.4954,-5.5015,-5.511,-5.5184,-5.5205,-5.5277,-5.533,-5.5317,-5.5349,-5.5346,-5.5352,-5.5161,-5.5133,-5.5359,-5.5359,-5.5359,-5.5359,-5.5359,-5.5359,-5.4667,-5.4781,-5.4784,-5.4916,-5.494,-5.503,-5.5063,-5.5106,-5.514,-5.5247,-5.5309,-5.5322,-5.5357,-5.5431,-5.5498,-5.5502,-5.5531,-5.557,-5.5569,-5.539,-5.5365,-5.5342,-5.5316,-5.5576,-5.5576,-5.5754,-5.5756,-5.5757]}]]